Tracking 28920 objects as of 26-May-2024
HD Live streaming from Space Station
objects crossing your sky now

METEOR 1-26

Track METEOR 1-26 now!
10-day predictions
METEOR 1-26 is classified as:


NORAD ID: 9481
Int'l Code: 1976-102A
Perigee: 850.5 km
Apogee: 881.9 km
Inclination: 81.2 °
Period: 102.1 minutes
Semi major axis: 7237 km
RCS: 4.3206 m2 (large)
Launch date: October 15, 1976
Source: Commonwealth of Independent States (former USSR) (CIS)
Launch site: PLESETSK MISSILE AND SPACE COMPLEX (PKMTR)
Your satellite tracking list
Your tracking list is empty




NASA's NSSDC Master Catalog

Two Line Element Set (TLE):
1 09481U 76102A   24146.48814817  .00000172  00000-0  90157-4 0  9992
2 09481  81.2197  59.5089 0021735 236.2441 123.6659 14.10095260447586
Source of the keplerian elements: AFSPC